Flag for French Southern Territories Weather past 2 weeks in Port-aux-Francais, French Southern Territories

Now
33 °F

Passing clouds.


Feels Like: 25 °F
Forecast: 36 / 41 °F
Wind: 10 mph from West

Location: Port-Aux-Francais Iles Kerguelen

Current Time: Aug 31, 2015 at 10:10:21 AM

Latest Report: Aug 31, 2015 at 8:00 AM


Visibility: 9 mi

Pressure: 29.99 "Hg

Humidity: 62%

Dew point: 22 °F

Location of Port-aux-FrancaisLocation

Historic Weather in Port-aux-Francais — Graph

°F

Port-aux-Francais temperature yesterday

Maximum temperature yesterday: 44 °F (at 10:00 AM)
Minimum temperature yesterday: 33 °F (at 9:00 PM)
Average temperature yesterday: 39 °F

Past Weeks' High & Low Weather Summary

 TemperatureHumidityPressure
High48 °F (Aug 25, 2:00 PM)93% (Aug 27, 5:00 AM)30.26 "Hg (Aug 27, 5:00 AM)
Low24 °F (Aug 26, 8:00 PM)47% (Aug 26, 11:00 AM)29.06 "Hg (Aug 26, 12:00 AM)
Average37 °F74%29.69 "Hg
* Reported Aug 16 8:00 AM — Aug 31 8:00 AM, Port-aux-Francais, Weather by CustomWeather, © 2015

Note: Actual official high and low records may vary slightly from our data, if they occured in-between our weather recording intervals... More about our weather records

Advertising

Port-aux-Francais weather history for previous 24 hours

 ConditionsComfort  
Time TempWeatherWind HumidityBarometerVisibility
8:00 AM
Mon, Aug 31
33 °FPassing clouds.10 mph62%29.99 "Hg9 mi
7:00 AM32 °FChilly.9 mph67%29.98 "HgN/A
6:00 AM32 °FChilly.15 mph64%29.96 "HgN/A
5:00 AM33 °FChilly.14 mph60%29.95 "HgN/A
4:00 AM33 °FChilly.16 mph63%29.93 "HgN/A
1:00 AM33 °FChilly.16 mph66%29.88 "HgN/A
12:00 AM33 °FChilly.16 mph63%29.85 "HgN/A
11:00 PM
Sun, Aug 30
33 °FChilly.24 mph65%29.82 "HgN/A
10:00 PM33 °FChilly.26 mph62%29.80 "HgN/A
9:00 PM33 °FChilly.31 mph63%29.77 "HgN/A
8:00 PM34 °FChilly.31 mph64%29.73 "HgN/A
7:00 PM35 °FChilly.31 mph75%29.67 "HgN/A
6:00 PM36 °FChilly.23 mph79%29.62 "HgN/A
5:00 PM39 °FChilly.25 mph63%29.56 "HgN/A
4:00 PM40 °FQuite cool.25 mph61%29.50 "HgN/A
3:00 PM40 °FQuite cool.28 mph64%29.47 "HgN/A
2:00 PM42 °FQuite cool.29 mph63%29.38 "HgN/A
1:00 PM43 °FQuite cool.26 mph74%29.35 "HgN/A
12:00 PM44 °FQuite cool.18 mph77%29.29 "HgN/A
11:00 AM43 °FQuite cool.17 mph84%29.29 "HgN/A
10:00 AM44 °FQuite cool.12 mph79%29.32 "HgN/A
Weather by CustomWeather, © 2015

See weather overviewHow to use our weather pages